Tracy, MN

7:03 AM CDT on September 25, 2017 (GMT -0500)
Tracy

Weather History for KTKC - February, 2013

Change the Weather History Date:

Wednesday, February 6, 2013

  Actual Average (KMML) Record (KMML)
Temperature  
Mean Temperature 24 °F -  
Max Temperature 39 °F 25 °F 58 °F (1987)
Min Temperature 9 °F 4 °F -20 °F (1978)
Degree Days  
Heating Degree Days 41    
Moisture  
Dew Point 24 °F    
Average Humidity 85    
Maximum Humidity 94    
Minimum Humidity 72    
Precipitation  
Precipitation 0.02 in - - ()
Sea Level Pressure  
Sea Level Pressure 29.90 in    
Wind  
Wind Speed 5 mph (SSW)    
Max Wind Speed 18 mph    
Max Gust Speed 24 mph    
Visibility 10 miles    
Events      
Averages and records for this station are not official NWS values.
T = Trace of Precipitation, MM = Missing Value Source: NWS Daily Summary

Daily Weather History Graph

Daily Weather History Graph

Search for Another Location

Airport or City:

Trip Planner

Search our weather history database for the weather conditions in past years. The results will help you decide how hot, cold, wet, or windy it might be!

Date:

Astronomy

Feb. 06, 2013 Rise Set
Actual Time 7:34 AM CST 5:39 PM CST
Civil Twilight 7:03 AM CST 6:10 PM CST
Nautical Twilight 6:29 AM CST 6:44 PM CST
Astronomical Twilight 5:55 AM CST 7:18 PM CST
Moon 4:23 AM CST (2/6) 1:54 PM CST (2/6)
Length of Visible Light 11h 06m
Length of Day
10h 05m
Waning Crescent, 17% of the Moon is Illuminated
Feb 6
Waning Crescent
Feb 10
New
Feb 17
First Quarter
Feb 25
Full
Mar 4
Last Quarter

Hourly Weather History & Observations

Time (CST) Temp. Windchill Dew Point Humidity Pressure Visibility Wind Dir Wind Speed Gust Speed Precip Events Conditions
12:18 AM 12.7 °F - 9.9 °F 88% 30.05 in 10.0 mi Calm Calm - N/A   Clear
12:37 AM 12.6 °F - 9.3 °F 87% 30.04 in 10.0 mi Calm Calm - N/A   Clear
1:17 AM 11.5 °F - 9.0 °F 90% 30.04 in 10.0 mi Calm Calm - N/A   Clear
1:37 AM 10.8 °F - 8.1 °F 89% 30.03 in 10.0 mi Calm Calm - N/A   Clear
2:18 AM 9.5 °F - 7.2 °F 90% 30.02 in 10.0 mi Calm Calm - N/A   Clear
2:37 AM 10.9 °F - 8.4 °F 90% 30.01 in 10.0 mi Calm Calm - N/A   Scattered Clouds
2:58 AM 12.2 °F - 9.5 °F 89% 30.02 in 10.0 mi Calm Calm - N/A   Overcast
3:18 AM 14.2 °F - 11.1 °F 88% 30.02 in 10.0 mi Calm Calm - N/A   Overcast
3:38 AM 15.4 °F - 12.4 °F 88% 30.01 in 10.0 mi Calm Calm - N/A   Overcast
3:58 AM 17.1 °F - 14.0 °F 88% 30.01 in 10.0 mi Calm Calm - N/A   Overcast
4:18 AM 18.9 °F - 15.4 °F 87% 30.00 in 10.0 mi Calm Calm - N/A   Overcast
4:38 AM 19.9 °F - 16.7 °F 87% 30.00 in 10.0 mi Calm Calm - N/A   Overcast
4:57 AM 21.0 °F 12.4 °F 17.6 °F 87% 29.99 in 10.0 mi South 6.9 mph - N/A   Overcast
5:17 AM 21.7 °F 12.3 °F 18.3 °F 87% 29.97 in 10.0 mi South 8.1 mph - N/A   Overcast
5:38 AM 21.7 °F 10.2 °F 18.5 °F 87% 29.97 in 10.0 mi South 11.5 mph - N/A   Overcast
5:58 AM 22.6 °F 11.9 °F 19.0 °F 86% 29.97 in 10.0 mi South 10.4 mph - N/A   Overcast
6:17 AM 23.0 °F 11.7 °F 19.4 °F 86% 29.96 in 10.0 mi South 11.5 mph 17.3 mph N/A   Overcast
6:38 AM 23.7 °F 12.1 °F 20.1 °F 86% 29.95 in 10.0 mi South 12.7 mph 18.4 mph N/A   Overcast
6:58 AM 24.3 °F 12.7 °F 20.3 °F 85% 29.94 in 10.0 mi South 12.7 mph 17.3 mph N/A   Overcast
7:18 AM 24.8 °F 12.4 °F 21.2 °F 86% 29.92 in 10.0 mi South 15.0 mph 20.7 mph N/A   Overcast
7:37 AM 25.5 °F 12.4 °F 21.2 °F 84% 29.91 in 10.0 mi South 17.3 mph 23.0 mph N/A   Overcast
7:58 AM 25.3 °F 14.1 °F 21.0 °F 84% 29.92 in 10.0 mi South 12.7 mph 19.6 mph N/A   Overcast
8:18 AM 25.3 °F 13.6 °F 20.5 °F 82% 29.92 in 10.0 mi South 13.8 mph 21.9 mph N/A   Overcast
8:38 AM 25.2 °F 12.9 °F 20.7 °F 83% 29.91 in 10.0 mi SSE 15.0 mph 20.7 mph N/A   Overcast
8:58 AM 25.7 °F 14.0 °F 21.2 °F 83% 29.90 in 10.0 mi SSE 13.8 mph - N/A   Overcast
9:18 AM 26.6 °F 14.7 °F 21.7 °F 82% 29.90 in 10.0 mi South 15.0 mph 20.7 mph N/A   Mostly Cloudy
9:37 AM 27.3 °F 15.2 °F 22.1 °F 81% 29.89 in 10.0 mi SSE 16.1 mph - N/A   Mostly Cloudy
9:57 AM 27.9 °F 15.1 °F 22.8 °F 81% 29.87 in 10.0 mi SSE 18.4 mph 24.2 mph N/A   Scattered Clouds
10:18 AM 29.3 °F 17.3 °F 23.7 °F 80% 29.87 in 10.0 mi South 17.3 mph 24.2 mph N/A   Clear
10:38 AM 30.2 °F 18.5 °F 24.4 °F 79% 29.87 in 10.0 mi South 17.3 mph 23.0 mph N/A   Clear
10:57 AM 31.6 °F 21.2 °F 25.7 °F 79% 29.86 in 10.0 mi South 15.0 mph 18.4 mph N/A   Clear
11:18 AM 32.9 °F 23.2 °F 26.4 °F 77% 29.87 in 10.0 mi South 13.8 mph 20.7 mph N/A   Clear
11:38 AM 34.2 °F 25.2 °F 27.3 °F 76% 29.86 in 10.0 mi South 12.7 mph 19.6 mph 0.02 in   Clear
12:18 PM 34.9 °F 27.1 °F 28.4 °F 77% 29.83 in 10.0 mi South 10.4 mph 23.0 mph N/A   Clear
12:37 PM 35.6 °F 29.2 °F 29.3 °F 78% 29.82 in 10.0 mi South 8.1 mph - N/A   Clear
12:58 PM 37.9 °F 30.9 °F 30.2 °F 74% 29.81 in 10.0 mi SSW 10.4 mph 18.4 mph N/A   Clear
1:18 PM 38.7 °F 32.4 °F 30.4 °F 72% 29.83 in 10.0 mi SW 9.2 mph 17.3 mph N/A   Clear
1:38 PM 38.7 °F 31.8 °F 30.9 °F 74% 29.83 in 10.0 mi SW 10.4 mph - N/A   Clear
1:58 PM 39.2 °F 32.5 °F 31.1 °F 73% 29.83 in 10.0 mi SW 10.4 mph - N/A   Clear
2:18 PM 38.7 °F 31.4 °F 31.1 °F 74% 29.82 in 10.0 mi SW 11.5 mph - N/A   Clear
2:37 PM 38.3 °F 31.9 °F 31.5 °F 76% 29.81 in 10.0 mi SSW 9.2 mph - N/A   Clear
2:57 PM 38.3 °F 30.9 °F 31.1 °F 75% 29.81 in 10.0 mi SSW 11.5 mph - N/A   Clear
3:38 PM 37.8 °F 30.2 °F 31.6 °F 79% 29.81 in 10.0 mi SSW 11.5 mph - N/A   Clear
3:57 PM 37.6 °F 30.0 °F 31.6 °F 79% 29.80 in 10.0 mi SSW 11.5 mph - N/A   Clear
4:18 PM 37.8 °F 30.2 °F 31.6 °F 79% 29.81 in 10.0 mi SW 11.5 mph - N/A   Clear
4:38 PM 37.4 °F 28.9 °F 31.6 °F 80% 29.81 in 10.0 mi SW 13.8 mph - N/A   Clear
4:58 PM 36.9 °F 30.7 °F 31.6 °F 81% 29.82 in 10.0 mi SW 8.1 mph - N/A   Clear
5:17 PM 37.0 °F 31.6 °F 31.6 °F 81% 29.82 in 10.0 mi SW 6.9 mph - N/A   Clear
5:37 PM 36.7 °F - 31.6 °F 82% 29.83 in 10.0 mi Calm Calm - N/A   Clear
5:57 PM 36.3 °F - 31.3 °F 82% 29.83 in 10.0 mi Calm Calm - N/A   Clear
6:17 PM 36.7 °F - 31.5 °F 81% 29.84 in 10.0 mi Calm Calm - N/A   Clear
6:38 PM 33.4 °F - 31.1 °F 91% 29.86 in 10.0 mi Calm Calm - N/A   Clear
6:58 PM 33.3 °F - 30.7 °F 90% 29.87 in 10.0 mi Calm Calm - N/A   Clear
7:17 PM 32.7 °F - 30.6 °F 92% 29.87 in 10.0 mi Calm Calm - N/A   Clear
7:38 PM 32.5 °F - 30.7 °F 93% 29.87 in 10.0 mi Calm Calm - N/A   Clear
7:58 PM 32.4 °F - 30.6 °F 93% 29.88 in 10.0 mi Calm Calm - N/A   Clear
8:17 PM 32.0 °F - 30.2 °F 93% 29.88 in 10.0 mi Calm Calm - N/A   Clear
8:37 PM 32.4 °F - 30.7 °F 94% 29.89 in 10.0 mi Calm Calm - N/A   Scattered Clouds
8:58 PM 32.0 °F - 30.4 °F 94% 29.89 in 10.0 mi Calm Calm - N/A   Clear
9:18 PM 32.0 °F - 30.2 °F 93% 29.89 in 10.0 mi Calm Calm - N/A   Clear
9:38 PM 32.0 °F - 30.0 °F 92% 29.90 in 10.0 mi Calm Calm - N/A   Clear
9:57 PM 32.0 °F - 30.2 °F 93% 29.90 in 10.0 mi Calm Calm - N/A   Clear
10:18 PM 32.2 °F - 30.2 °F 92% 29.91 in 10.0 mi Calm Calm - N/A   Clear
10:38 PM 32.2 °F - 29.8 °F 91% 29.91 in 10.0 mi Calm Calm - N/A   Clear
10:57 PM 30.9 °F - 28.8 °F 92% 29.92 in 7.0 mi Calm Calm - N/A   Clear
11:18 PM 28.8 °F 20.2 °F 27.3 °F 94% 29.94 in 3.0 mi NNW 9.2 mph - N/A   Mostly Cloudy
11:38 PM 26.1 °F 16.2 °F 24.6 °F 94% 29.95 in 4.0 mi NNW 10.4 mph - N/A   Overcast
11:57 PM 24.8 °F 15.3 °F 23.0 °F 93% 29.96 in 4.0 mi NNW 9.2 mph - N/A   Overcast